Temp_Advection
nan nan nan nan nan nan nan nan nan nan nan nan nan nan nan nan nan nan nan nan nan nan nan nan nan nan nan nan nan nan nan nan nan nan nan nan nan nan nan nan nan nan nan nan nan nan nan
nan -0 -0 -0 -0 0 0 0 0 -0 0 -0 0 0 -0 0 0 0 0 -0 0 0 0 0 0 0 -0 -0 0 0 0 0 -0 -0 0 0 0 0 -0 -0 -0 -0 -0 -0 -0 -0 nan
nan 0 -0 -0 -0 0 0 0 0 -0 -0 0 -0 0 0 -0 0 -0 -0 -0 0 0 0 0 -0 0 -0 -0 0 0 0 0 -0 -0 0 0 0 -0 -0 -0 0 -0 -0 0 0 -0 nan
nan 0 0 0 0 0 0 0 0 0 0 0 -0 -0 0 0 0 -0 -0 -0 0 0 0 0 -0 -0 -0 0 0 0 0 -0 0 0 0 -0 -0 -0 -0 0 0 -0 -0 -0 0 -0 nan
nan -0 -0 -0 -0 0 -0 0 0 0 0 0 0 0 -0 0 0 0 -0 -0 0 0 0 -0 0 -0 -0 -0 -0 0 0 0 0 0 0 -0 -0 -0 0 0 0 -0 -0 -0 -0 0 nan
nan -0 0 -0 -0 -0 -0 -0 -0 -0 -0 0 0 0 -0 -0 0 0 0 -0 0 -0 0 -0 -0 0 -0 0 -0 -0 0 0 0 0 0 0 0 -0 -0 -0 0 -0 -0 -0 -0 -0 nan
nan -0 -0 0 -0 -0 -0 -0 -0 -0 -0 0 -0 -0 0 -0 -0 0 0 0 -0 -0 -0 -0 0 0 -0 0 0 -0 0 0 0 0 0 -0 -1 -0 0 0 -0 -0 -0 -0 -0 -0 nan
nan -0 -0 -0 0 -0 -0 -0 -0 -0 0 0 0 -0 -0 -0 0 0 -0 -0 0 -0 -0 0 -0 -0 -0 0 0 -0 0 -0 -0 -0 0 -0 -0 0 -0 0 -0 -0 0 -0 -0 0 nan
nan -0 -0 -0 -0 -0 -0 -0 -0 -0 -0 -0 0 -0 -0 -0 -0 0 -0 -0 0 -0 0 -0 -0 -0 -0 -0 -0 -0 0 -0 -0 -0 -0 -0 -0 0 -0 -0 -0 -0 -0 -0 -0 -0 nan
nan -0 -0 -0 -0 -0 -0 -0 -0 -0 -0 -0 -0 0 -0 -0 0 -0 -0 0 0 -0 0 -0 -0 0 0 -0 -0 0 -0 0 -0 -0 -0 -0 0 -0 -0 -0 -0 0 -0 -0 0 -0 nan
nan -0 -0 -0 -0 -0 -0 -0 -0 -0 -0 -0 -0 -0 -0 -0 0 0 0 0 0 -0 -0 0 -0 -0 0 0 0 0 0 0 -0 -0 0 0 0 -0 0 -0 -0 -0 0 -0 0 -0 nan
nan -0 -1 -1 -0 -0 -1 -1 -0 -0 -0 -0 -0 -0 -0 -0 -0 0 0 0 0 -0 0 0 -0 -0 -0 -0 -0 -0 -0 -0 0 0 -0 -0 -0 -0 -0 -0 0 -0 0 0 0 0 nan
nan -0 -0 -1 -1 -1 -1 -1 -1 -0 -0 -0 -0 -0 -0 -0 -0 0 -0 0 -0 -0 -0 0 -0 -0 -0 -0 0 -0 -0 -0 -0 0 0 -0 -0 -0 -0 -0 0 0 0 -0 -0 -0 nan
nan -0 -0 -1 -1 -1 -1 -1 -1 -1 -0 -0 -0 -0 0 -0 -0 0 0 -0 -0 -0 -0 -0 0 0 -0 0 0 -0 0 -0 -0 0 -0 0 -0 -0 -0 -0 -0 -0 0 -0 -0 0 nan
nan -0 -0 -0 -0 -0 -1 -1 -1 -1 -1 -0 -0 -0 -0 -0 -0 0 0 -0 -0 0 -0 -0 -0 -0 -0 -0 0 -0 -0 -0 -0 -0 -0 0 0 -0 -0 -0 0 -0 0 0 -0 0 nan
nan -0 -0 -0 -0 -0 -0 -1 -1 -1 -1 -1 -0 -0 -0 -0 0 0 0 -0 0 -0 0 -0 -0 -0 -0 -0 -0 0 -0 0 -0 0 -0 -0 -0 -0 -0 -0 0 -0 -0 0 0 -0 nan
nan -0 -0 -0 -0 -0 -0 -0 -1 -1 -1 -0 -0 -0 -0 0 0 -0 0 0 -0 0 0 -0 0 -0 -0 0 -0 -0 -0 0 -0 -0 -0 -0 -0 0 -0 0 0 0 0 -0 -0 0 nan
nan -1 -0 -0 -0 -0 -0 -0 -0 -0 -1 -0 -0 -0 -0 0 0 0 0 0 -0 -0 0 -0 -0 0 0 0 0 0 -0 -0 0 0 -0 -0 -0 -0 -0 -0 -0 -0 -0 0 -0 0 nan
nan -1 -1 -0 -0 -0 -0 -0 -0 -0 -0 -0 -0 -0 0 0 0 0 0 0 0 0 -0 -0 0 -0 -0 0 0 0 -0 0 0 0 0 0 0 0 0 0 0 -0 0 0 0 -0 nan
nan -1 -1 -1 -1 0 0 -0 -0 -0 -0 -0 -0 -0 0 0 -0 0 -0 -0 0 0 0 0 0 0 0 0 0 0 -0 0 0 0 0 -0 -0 0 0 -0 -0 0 0 0 0 0 nan
nan -1 -1 -1 -1 -0 0 0 -0 0 0 -0 -0 -0 0 -0 -0 -0 -0 -0 -0 -0 -0 0 0 -0 -0 -0 -0 -0 -0 -0 -0 0 0 0 0 0 -0 0 0 0 -0 0 0 0 nan
nan -0 -1 -2 -1 -0 -0 0 0 0 0 0 -0 -0 -0 -0 -0 0 0 -0 -0 -0 -0 -0 -0 -0 -0 0 0 0 0 -0 -0 -0 0 0 0 -0 -0 -0 0 -0 -1 -0 -0 -0 nan
nan -0 -0 -1 -2 -1 0 0 0 0 0 -0 -0 -0 -0 0 0 0 -0 -0 0 -0 -0 -0 -0 -0 0 0 -0 -0 -0 -0 -0 -0 -0 0 0 0 -0 -0 0 -0 -0 0 0 -0 nan
nan -0 -0 -0 -1 -2 -1 -0 0 0 -0 -0 -0 -0 -0 0 0 -0 -0 0 0 0 0 0 0 0 0 0 0 -0 -0 -0 0 -0 0 -0 -0 -0 -0 -0 -0 -0 0 -0 0 -0 nan
nan -1 -1 -0 -0 -1 -2 -1 0 0 0 0 -0 -0 0 -0 -0 -0 0 0 0 0 0 0 0 0 0 -0 -0 -0 0 -0 -0 -0 -0 -0 0 -0 -0 -0 -1 0 0 0 0 -0 nan
nan -0 -1 -0 -0 -1 -1 -2 -1 0 0 0 -0 -0 -0 -0 -0 -0 0 1 -0 0 -0 -0 1 1 0 0 0 0 -0 0 0 -0 -0 0 -0 0 0 -0 -0 0 -0 0 -0 0 nan
nan 0 -1 -1 -0 -0 -0 -1 -1 -0 0 0 -0 0 0 -1 -1 0 0 0 -0 -1 -0 -0 0 0 1 0 0 0 0 0 -0 -0 -0 0 0 0 -0 -0 0 0 0 0 0 0 nan
nan -0 -0 -1 -1 -0 -0 -1 -1 -1 -0 0 -0 0 -0 -0 -1 -0 0 0 0 -0 -0 -0 -0 -0 0 0 0 0 0 0 -0 -0 -1 -0 -1 -0 -0 -0 0 -0 0 0 0 0 nan
nan nan nan nan nan nan nan nan nan nan nan nan nan nan nan nan nan nan nan nan nan nan nan nan nan nan nan nan nan nan nan nan nan nan nan nan nan nan nan nan nan nan nan nan nan nan nan
Wind_Speed
12 14 15 17 18 20 23 25 25 22 22 16 14 8 6 1 2 3 3 4 4 4 4 4 5 6 7 5 3 6 6 6 6 5 4 6 2 2 4 4 10 9 5 9 6 5 5
10 12 14 15 17 18 20 22 24 23 22 19 14 10 8 3 2 4 4 2 5 9 11 11 6 4 3 2 5 5 6 7 7 8 5 7 5 7 8 5 6 7 9 7 3 3 2
8 10 12 14 15 17 18 20 22 24 21 21 16 12 7 4 2 2 5 9 11 7 3 5 6 8 8 2 5 4 6 6 7 7 6 7 8 2 6 5 7 12 6 6 2 3 2
8 9 10 12 14 15 16 17 19 22 22 21 19 11 9 4 1 3 7 8 1 1 2 2 6 6 3 6 5 4 4 6 7 8 8 8 11 7 4 8 5 4 2 5 3 5 2
9 10 10 11 12 13 14 15 16 18 21 21 20 14 8 5 1 3 6 4 1 1 3 1 3 4 2 5 7 5 4 3 5 7 7 6 8 4 5 3 3 4 1 4 3 3 2
10 11 11 11 11 12 14 14 15 16 18 19 20 16 8 5 1 2 4 3 3 2 1 1 3 4 2 2 7 5 4 2 1 2 5 3 2 3 6 4 1 4 4 3 1 2 3
12 12 12 13 13 13 13 14 15 15 16 18 18 18 12 6 1 5 8 2 2 2 2 4 1 4 3 1 9 9 3 5 4 2 1 4 7 5 6 6 3 4 4 6 6 3 4
13 13 13 13 14 14 14 14 14 14 15 16 17 18 14 3 2 7 4 1 3 5 5 6 7 3 4 6 2 9 3 2 2 2 1 3 4 4 3 3 2 3 5 5 1 2 5
13 14 14 14 13 14 15 14 15 15 14 14 16 15 15 5 3 7 12 8 2 5 1 1 3 3 2 6 5 10 4 3 4 7 6 5 3 1 2 4 7 5 3 3 4 7 6
15 15 15 16 16 15 15 15 15 15 15 14 14 14 15 9 3 3 4 6 9 2 1 2 2 3 4 2 2 11 5 3 2 4 5 5 2 1 0 3 5 2 3 4 6 5 2
15 16 17 17 17 17 16 16 14 14 15 14 13 13 12 11 6 4 3 9 4 3 3 2 2 1 6 3 1 8 10 5 5 3 1 1 2 1 1 2 3 2 4 4 3 3 3
17 16 16 18 18 18 18 17 16 14 14 15 13 12 9 9 5 2 8 5 2 2 5 2 0 0 3 4 3 3 4 6 3 0 6 4 2 4 4 3 2 6 4 6 2 2 1
20 19 18 18 19 18 18 17 17 15 14 13 12 10 9 8 4 3 6 3 1 3 1 4 2 1 4 3 3 4 3 5 3 4 2 4 3 3 3 3 2 3 3 3 4 2 4
23 21 20 20 19 18 18 17 16 18 14 13 12 10 7 5 2 5 6 1 4 2 3 1 2 2 0 2 2 1 3 3 7 4 2 1 2 2 3 3 1 3 2 4 4 3 3
28 25 23 22 21 19 18 17 16 16 16 13 13 10 9 5 2 7 4 2 4 1 3 6 2 4 3 3 1 4 5 3 3 7 3 3 2 2 4 2 1 1 1 1 2 2 2
32 28 27 24 22 20 18 17 16 15 15 13 12 10 12 7 5 8 1 4 2 1 1 0 4 2 4 4 4 3 4 2 3 2 5 1 2 1 3 1 0 2 1 1 1 2 5
34 33 29 26 23 21 19 16 15 14 13 11 8 4 6 6 6 4 4 4 3 5 1 3 2 3 3 3 2 2 4 1 1 2 2 2 2 2 4 4 2 1 2 3 1 2 3
31 36 32 28 25 22 20 17 14 12 12 9 4 4 5 7 3 4 2 4 3 5 4 3 2 3 3 4 4 3 4 3 5 3 2 1 2 3 1 4 3 0 3 2 2 2 3
23 24 35 32 28 25 22 19 15 11 9 8 4 6 7 10 3 4 2 3 3 5 5 5 3 0 2 4 4 3 4 3 6 4 2 4 2 3 1 2 1 3 4 4 1 2 5
23 24 25 30 28 28 25 21 17 13 9 7 5 3 5 10 9 2 5 5 5 4 4 3 4 3 4 3 0 5 4 4 6 1 1 2 2 5 5 5 3 5 5 9 9 4 4
23 23 22 29 32 29 27 24 19 15 11 7 5 4 2 3 7 6 10 9 6 6 4 9 2 6 7 4 5 5 5 5 4 5 3 1 4 5 8 9 8 11 14 12 12 15 10
25 21 22 22 25 30 30 26 22 18 15 12 4 4 3 5 4 6 7 8 10 6 8 5 4 10 7 5 6 7 8 6 5 6 5 4 2 3 4 10 8 13 18 15 16 18 19
28 24 22 24 24 25 28 29 26 23 20 12 11 17 5 3 4 4 5 6 10 13 9 1 11 6 7 2 8 8 10 9 8 8 7 5 4 2 4 2 4 10 9 13 5 7 6
29 28 27 24 27 24 22 30 30 28 27 23 15 9 6 4 5 5 1 5 8 13 6 6 7 7 8 8 9 7 7 5 4 5 3 6 5 2 3 2 3 5 3 2 5 8 10
29 29 26 28 23 28 24 28 30 32 31 29 28 18 5 4 10 9 7 5 10 9 5 7 4 6 15 8 3 3 1 1 3 6 3 2 4 3 3 4 9 5 2 4 5 4 3
29 28 27 28 26 25 27 23 33 33 35 33 32 27 17 5 7 15 11 15 5 5 3 4 11 14 9 3 3 5 5 5 4 3 2 1 3 2 2 4 5 2 4 4 4 4 4
29 29 29 29 26 25 29 25 25 37 39 38 35 33 26 13 20 15 7 12 11 10 4 8 9 7 8 3 2 4 4 1 5 6 6 4 3 7 7 5 7 4 13 7 2 4 5
29 29 28 28 23 22 26 32 25 31 40 43 40 39 34 17 20 16 15 10 14 16 5 12 7 2 1 4 4 4 5 6 3 5 7 9 8 4 4 4 10 18 7 6 5 7 7
30 28 28 26 24 20 22 26 30 22 32 45 42 37 35 28 11 25 25 21 24 24 16 25 5 9 13 3 2 3 2 3 3 4 4 4 7 6 9 5 6 22 8 8 4 6 5
Wind_Direction
37 34 33 30 30 30 29 29 28 27 24 22 21 31 6 29 121 135 124 125 109 95 84 54 82 101 92 63 21 8 19 39 58 72 103 114 128 105 109 99 84 80 98 85 92 70 53
28 26 25 24 23 23 24 25 24 24 23 23 19 23 25 45 79 137 138 130 108 111 93 78 67 90 65 92 1 22 35 49 59 66 106 126 112 89 83 56 35 117 106 105 94 77 80
13 13 17 16 18 18 17 19 20 19 20 20 20 16 24 25 44 147 142 138 125 120 35 57 128 70 54 75 37 42 55 65 63 74 80 105 117 44 124 108 113 138 115 150 134 22 108
350 356 1 5 7 12 13 13 15 15 17 16 15 15 11 14 63 162 145 140 63 36 122 24 88 83 79 32 44 25 40 62 74 74 84 84 100 86 57 117 138 204 229 165 106 338 153
339 343 348 350 357 1 6 7 9 12 12 12 12 10 7 15 10 176 185 213 251 77 66 39 118 112 79 27 7 17 41 91 88 74 68 69 81 108 128 229 186 193 278 60 138 78 292
338 340 342 345 346 352 356 360 2 6 10 11 9 5 358 356 24 189 192 151 95 247 199 46 89 126 58 322 15 16 35 66 97 67 42 9 214 112 28 356 96 4 347 6 60 77 8
326 333 337 341 344 345 349 351 355 358 3 6 7 8 360 351 339 155 148 165 6 32 79 87 86 92 55 58 54 12 72 58 59 26 73 27 57 67 37 19 355 332 298 287 25 91 1
315 320 325 331 336 339 342 345 346 351 354 359 6 5 1 342 215 186 210 343 336 159 85 70 69 43 47 70 84 16 78 6 7 97 219 69 89 52 328 312 302 288 300 25 352 172 342
303 308 313 317 324 330 332 336 340 342 347 352 356 359 3 340 319 235 246 262 226 153 281 109 58 42 345 74 47 4 52 64 26 51 43 80 84 127 316 17 352 84 56 359 283 314 254
296 300 304 308 313 318 321 328 332 335 338 342 349 357 360 350 321 300 246 201 167 217 211 136 113 6 354 84 59 30 47 85 57 94 60 80 134 302 257 84 347 265 36 317 300 2 297
288 294 299 302 306 310 314 317 324 328 329 334 338 351 353 356 327 277 202 156 164 153 349 22 74 57 49 38 13 12 38 60 49 93 242 129 119 354 240 41 337 8 342 294 314 278 343
288 290 292 297 301 305 308 310 312 319 322 324 329 338 347 351 343 287 165 165 178 73 250 117 348 159 186 48 54 11 52 62 116 231 51 79 58 14 17 326 276 313 280 213 229 243 7
285 286 289 292 295 299 302 304 307 308 314 317 320 326 330 352 349 166 181 163 79 197 133 135 77 352 71 43 82 29 67 31 53 59 149 156 120 99 0 291 214 280 290 326 342 0 240
279 282 284 287 288 291 295 299 302 301 304 308 309 309 308 324 337 174 170 342 230 277 104 131 166 181 48 345 103 167 182 139 52 342 87 135 299 39 8 45 317 322 345 146 264 265 283
274 277 280 281 285 288 293 296 298 300 300 303 304 299 282 265 263 195 167 209 253 138 104 154 152 214 137 157 353 194 43 79 44 8 65 49 132 118 57 5 41 28 241 354 283 326 59
267 273 273 277 280 284 287 293 295 296 297 303 306 300 273 245 228 185 140 247 195 75 100 223 214 263 168 128 199 209 157 302 125 22 304 87 318 27 140 241 99 304 333 319 278 306 286
267 264 268 270 273 276 279 286 292 294 294 301 300 286 238 218 191 178 211 190 149 154 173 270 145 143 51 134 330 126 84 223 204 136 349 352 121 172 138 191 140 210 202 232 311 230 230
272 263 260 264 265 267 272 279 284 288 294 295 263 243 215 196 173 238 199 148 143 156 169 227 318 38 142 171 146 125 141 70 156 194 109 117 82 261 33 118 68 334 282 315 151 292 258
297 275 263 255 260 260 261 268 273 277 287 290 255 261 226 196 210 195 155 114 219 149 190 193 149 9 286 159 133 124 103 154 173 215 163 179 203 305 155 29 343 218 180 243 350 71 217
295 294 264 262 252 255 254 255 258 259 263 272 280 261 210 205 246 245 160 181 170 205 163 213 114 130 156 154 211 152 145 182 180 138 121 42 282 215 214 266 347 239 215 201 207 210 223
282 298 288 258 251 247 248 248 248 245 243 240 231 263 221 204 228 226 172 164 146 173 225 191 178 222 189 147 150 185 141 133 165 176 135 162 224 243 264 273 275 270 263 249 240 238 234
267 285 300 288 244 239 241 240 236 239 236 227 250 256 290 289 272 217 181 204 174 147 157 205 234 190 211 183 193 179 162 167 175 157 159 181 213 47 276 261 270 271 259 254 249 255 255
273 266 288 296 289 237 229 235 232 229 226 219 233 254 259 207 213 206 203 192 192 146 203 149 192 139 201 214 92 82 82 81 134 148 178 164 159 151 256 68 317 275 252 215 204 230 225
278 272 276 286 294 282 239 226 227 227 229 225 232 227 227 253 203 210 255 178 182 181 148 168 173 173 155 141 111 94 84 82 124 83 132 161 144 177 278 315 256 251 163 110 211 258 223
275 276 263 270 287 286 276 230 228 224 228 226 228 224 231 264 204 230 206 176 153 147 123 141 128 153 142 120 101 122 318 158 99 40 326 343 144 224 250 217 282 263 208 171 178 276 251
270 276 278 260 276 280 282 257 232 231 224 228 231 229 224 271 230 219 187 187 164 164 111 106 136 146 147 125 126 191 219 213 203 131 50 93 31 206 169 243 265 177 159 128 105 270 36
267 271 278 264 261 276 271 279 246 234 223 223 227 227 222 240 256 216 199 191 185 167 127 134 159 156 167 138 152 185 222 133 192 198 169 145 174 214 233 260 278 154 156 144 138 229 126
264 269 271 272 268 272 280 269 276 237 234 217 226 228 217 231 244 220 214 194 184 180 152 140 115 165 151 170 170 208 207 209 193 171 178 167 167 199 192 228 267 147 133 187 135 122 153
264 265 267 275 262 276 270 279 264 275 239 217 221 226 223 220 236 230 232 219 209 200 183 170 180 157 169 136 185 162 181 158 206 232 179 204 195 183 193 217 135 172 121 149 136 161 179
Height
1561 1559 1557 1555 1553 1550 1547 1544 1542 1539 1535 1533 1531 1529 1528 1528 1527 1527 1527 1526 1527 1527 1527 1528 1527 1527 1528 1529 1530 1529 1527 1526 1524 1523 1523 1524 1525 1525 1527 1529 1530 1533 1536 1538 1540 1540 1541
1562 1560 1559 1557 1555 1552 1550 1546 1543 1541 1538 1534 1532 1530 1529 1529 1528 1527 1527 1528 1527 1528 1529 1528 1528 1528 1529 1530 1530 1528 1528 1526 1525 1524 1524 1524 1526 1526 1528 1530 1531 1534 1536 1539 1540 1541 1542
1563 1562 1560 1558 1556 1554 1552 1549 1546 1543 1539 1536 1534 1532 1530 1530 1529 1529 1528 1528 1529 1530 1530 1529 1530 1529 1530 1533 1530 1529 1528 1528 1527 1526 1526 1525 1526 1528 1530 1533 1535 1535 1539 1538 1540 1541 1541
1564 1563 1561 1559 1557 1555 1553 1551 1548 1545 1541 1538 1535 1533 1531 1530 1530 1530 1530 1530 1530 1530 1531 1531 1531 1531 1531 1532 1530 1530 1529 1528 1528 1528 1528 1528 1528 1529 1532 1534 1535 1537 1535 1542 1541 1540 1541
1565 1563 1561 1560 1558 1556 1554 1552 1549 1546 1543 1540 1537 1534 1532 1531 1531 1531 1531 1531 1531 1531 1531 1531 1531 1530 1533 1532 1531 1530 1530 1530 1529 1529 1529 1529 1529 1531 1534 1534 1537 1534 1536 1533 1544 1541 1541
1565 1564 1562 1560 1559 1557 1555 1553 1550 1548 1545 1541 1538 1535 1532 1531 1530 1531 1531 1531 1531 1531 1532 1531 1531 1534 1533 1533 1531 1530 1530 1530 1530 1530 1530 1530 1529 1530 1536 1538 1550 1543 1539 1534 1535 1544 1542
1565 1564 1562 1561 1559 1557 1555 1553 1551 1548 1546 1543 1540 1536 1533 1532 1531 1531 1532 1532 1535 1534 1532 1533 1533 1533 1532 1533 1532 1531 1530 1530 1530 1531 1530 1531 1540 1549 1546 1544 1542 1542 1541 1540 1538 1543 1545
1565 1564 1562 1560 1559 1557 1556 1553 1551 1548 1546 1544 1540 1538 1534 1532 1532 1532 1533 1532 1533 1534 1535 1534 1533 1534 1533 1532 1533 1531 1531 1533 1532 1532 1532 1536 1548 1547 1545 1542 1543 1541 1541 1548 1542 1542 1544
1564 1563 1561 1560 1558 1557 1555 1553 1551 1548 1545 1543 1541 1538 1535 1532 1532 1532 1532 1533 1532 1533 1534 1535 1534 1535 1535 1534 1534 1533 1532 1533 1533 1535 1535 1539 1547 1546 1546 1543 1545 1544 1547 1552 1553 1545 1537
1562 1561 1560 1559 1558 1555 1554 1552 1550 1548 1545 1543 1541 1538 1536 1533 1534 1531 1531 1532 1533 1533 1536 1536 1535 1535 1536 1535 1535 1534 1533 1535 1535 1538 1538 1543 1546 1545 1545 1546 1549 1545 1550 1551 1550 1552 1552
1560 1559 1559 1557 1556 1554 1552 1551 1549 1546 1545 1542 1540 1538 1536 1533 1532 1533 1532 1532 1533 1534 1563 1537 1536 1536 1536 1538 1539 1537 1535 1535 1537 1539 1541 1547 1546 1545 1545 1550 1550 1549 1550 1550 1549 1550 1548
1558 1557 1556 1555 1554 1553 1551 1549 1547 1545 1544 1542 1540 1537 1535 1534 1532 1532 1532 1533 1535 1541 1556 1537 1536 1535 1535 1537 1538 1538 1538 1537 1539 1539 1542 1548 1549 1549 1551 1550 1551 1550 1548 1548 1548 1551 1564
1556 1555 1553 1553 1551 1550 1548 1547 1545 1543 1542 1540 1538 1537 1535 1533 1532 1532 1533 1534 1541 1550 1534 1537 1537 1536 1534 1538 1538 1538 1541 1543 1544 1553 1544 1549 1550 1552 1552 1551 1550 1550 1550 1565 1566 1567 1557
1553 1552 1551 1550 1548 1546 1545 1543 1542 1542 1539 1538 1536 1535 1534 1533 1531 1532 1533 1537 1547 1530 1528 1535 1536 1536 1536 1541 1541 1540 1540 1545 1545 1544 1553 1555 1559 1552 1553 1555 1557 1553 1555 1572 1570 1569 1559
1548 1547 1547 1546 1545 1543 1541 1541 1539 1539 1537 1536 1534 1532 1531 1532 1530 1531 1534 1540 1534 1526 1528 1532 1536 1535 1539 1539 1541 1538 1544 1548 1552 1550 1551 1557 1551 1555 1554 1554 1557 1553 1557 1555 1561 1551 1572
1542 1542 1542 1542 1541 1540 1538 1538 1537 1536 1535 1533 1531 1530 1529 1529 1529 1530 1533 1530 1530 1529 1532 1530 1530 1533 1532 1534 1539 1535 1541 1550 1551 1551 1550 1551 1556 1551 1555 1556 1556 1556 1555 1562 1565 1574 1558
1536 1536 1537 1537 1536 1536 1535 1534 1534 1533 1533 1531 1530 1528 1526 1527 1528 1529 1531 1527 1529 1528 1530 1532 1527 1531 1531 1535 1536 1537 1545 1551 1548 1550 1549 1550 1553 1555 1554 1555 1552 1558 1557 1556 1557 1555 1567
1528 1529 1530 1531 1531 1532 1531 1531 1531 1531 1531 1530 1528 1527 1523 1524 1528 1525 1526 1523 1527 1527 1529 1531 1529 1527 1529 1533 1534 1537 1540 1545 1547 1549 1550 1552 1553 1558 1546 1551 1551 1552 1551 1551 1566 1555 1562
1523 1521 1522 1523 1525 1526 1527 1528 1528 1529 1528 1528 1525 1522 1521 1522 1523 1523 1524 1524 1525 1526 1528 1530 1528 1528 1531 1533 1538 1539 1542 1547 1548 1549 1549 1551 1554 1559 1555 1556 1554 1553 1551 1550 1551 1556 1563
1517 1516 1514 1514 1518 1520 1522 1524 1524 1525 1525 1527 1527 1520 1518 1517 1515 1515 1518 1520 1522 1524 1525 1526 1527 1528 1530 1532 1533 1539 1542 1546 1548 1549 1549 1550 1549 1548 1551 1544 1545 1547 1545 1546 1548 1556 1549
1512 1510 1507 1506 1510 1511 1515 1518 1519 1520 1522 1523 1523 1516 1512 1512 1512 1511 1511 1512 1516 1521 1524 1525 1526 1524 1524 1529 1533 1535 1536 1544 1547 1548 1550 1551 1555 1549 1544 1542 1543 1543 1541 1541 1543 1536 1543
1505 1504 1501 1499 1500 1502 1507 1510 1513 1516 1517 1517 1518 1516 1511 1511 1509 1508 1507 1508 1508 1514 1516 1520 1521 1519 1521 1521 1523 1529 1531 1535 1538 1548 1550 1550 1551 1556 1552 1542 1544 1541 1531 1532 1532 1528 1525
1498 1497 1496 1494 1493 1493 1496 1502 1505 1509 1510 1511 1512 1514 1512 1507 1507 1508 1501 1498 1501 1506 1511 1511 1514 1517 1521 1522 1524 1527 1528 1530 1533 1539 1546 1551 1552 1558 1545 1542 1543 1537 1516 1519 1519 1518 1517
1491 1491 1490 1488 1486 1485 1486 1492 1496 1500 1502 1505 1507 1510 1510 1504 1502 1499 1497 1496 1499 1501 1505 1509 1511 1513 1520 1522 1525 1528 1530 1533 1535 1537 1539 1545 1551 1556 1548 1543 1544 1508 1510 1510 1513 1511 1510
1483 1482 1482 1483 1480 1479 1478 1481 1486 1490 1494 1497 1501 1504 1504 1500 1496 1496 1496 1497 1499 1501 1504 1506 1510 1512 1516 1521 1526 1530 1534 1536 1538 1541 1542 1543 1546 1550 1546 1541 1516 1505 1514 1513 1514 1509 1505
1475 1475 1474 1474 1475 1473 1472 1471 1475 1480 1486 1489 1492 1496 1499 1498 1490 1490 1493 1493 1497 1500 1505 1508 1511 1513 1515 1520 1525 1527 1528 1522 1536 1542 1543 1543 1545 1548 1544 1541 1523 1504 1510 1510 1511 1519 1506
1467 1467 1466 1466 1467 1466 1464 1463 1465 1470 1475 1481 1481 1487 1493 1491 1486 1487 1485 1486 1488 1492 1498 1504 1509 1513 1514 1518 1524 1525 1521 1521 1527 1526 1544 1543 1547 1543 1540 1531 1515 1504 1506 1510 1514 1511 1508
1459 1459 1458 1458 1457 1457 1457 1457 1456 1457 1463 1469 1472 1476 1483 1483 1480 1480 1481 1481 1482 1483 1489 1499 1507 1511 1515 1516 1518 1519 1517 1517 1516 1511 1521 1523 1531 1539 1537 1531 1521 1501 1509 1510 1505 1505 1506
1451 1450 1450 1449 1450 1450 1450 1449 1448 1448 1451 1456 1464 1466 1475 1478 1473 1473 1475 1477 1478 1478 1480 1486 1486 1489 1496 1504 1509 1508 1512 1514 1509 1506 1504 1511 1503 1509 1512 1501 1495 1498 1499 1501 1503 1503 1505